| time (UTC) | temp F | wind direction | speed MPH | gust MPH | rain 1hr in | rain 24hr in | rain mn in | humidity % | barometer mb |
| 20260903214003 | 78 | 258 | 1.0 | 6.0 | 0.00 | 0.50 | 0.02 | 51 | 1013.2 |
| 20260903213503 | 78 | 257 | 1.0 | 3.0 | 0.00 | 0.50 | 0.02 | 51 | 1013.3 |
| 20260903213003 | 78 | 275 | 2.0 | 8.0 | 0.00 | 0.50 | 0.02 | 52 | 1013.4 |
| 20260903212503 | 78 | 271 | 2.0 | 8.0 | 0.00 | 0.50 | 0.02 | 50 | 1013.1 |
| 20260903212213 | 78 | 275 | 1.0 | 6.0 | 0.00 | 0.50 | 0.02 | 51 | 1013.1 |
| 20260903211713 | 78 | 289 | 1.0 | 6.0 | 0.00 | 0.50 | 0.02 | 51 | 1013.3 |
| 20260903211003 | 79 | 284 | 1.0 | 6.0 | 0.00 | 0.50 | 0.02 | 50 | 1013.4 |
| 20260903210503 | 79 | 285 | 0.0 | 2.0 | 0.00 | 0.50 | 0.02 | 51 | 1013.3 |
| 20260903210003 | 79 | 263 | 1.0 | 3.0 | 0.00 | 0.50 | 0.02 | 50 | 1013.4 |
| 20260903205503 | 78 | 248 | 1.0 | 3.0 | 0.00 | 0.50 | 0.02 | 50 | 1013.4 |
| 20260903205003 | 78 | 252 | 1.0 | 4.0 | 0.00 | 0.50 | 0.02 | 50 | 1013.5 |
| 20260903204503 | 78 | 265 | 3.0 | 9.0 | 0.00 | 0.50 | 0.02 | 50 | 1014.0 |
| 20260903204003 | 78 | 266 | 3.0 | 9.0 | 0.00 | 0.50 | 0.02 | 49 | 1013.4 |
| 20260903203503 | 78 | 264 | 2.0 | 12.0 | 0.00 | 0.50 | 0.02 | 51 | 1013.5 |
| 20260903203004 | 78 | 265 | 3.0 | 12.0 | 0.00 | 0.50 | 0.02 | 51 | 1013.5 |
| 20260903202713 | 78 | 266 | 3.0 | 12.0 | 0.00 | 0.50 | 0.02 | 50 | 1013.5 |
| 20260903202003 | 78 | 265 | 3.0 | 7.0 | 0.00 | 0.50 | 0.02 | 49 | 1013.6 |
| 20260903201503 | 79 | 265 | 2.0 | 9.0 | 0.00 | 0.50 | 0.02 | 48 | 1013.8 |
| 20260903201003 | 80 | 269 | 1.0 | 9.0 | 0.00 | 0.50 | 0.02 | 47 | 1013.7 |
| 20260903200503 | 80 | 293 | 0.0 | 4.0 | 0.00 | 0.50 | 0.02 | 48 | 1013.8 |
| 20260903200003 | 80 | 0 | 0.0 | 0.0 | 0.00 | 0.50 | 0.02 | 49 | 1013.9 |
| 20260903195503 | 79 | 273 | 0.0 | 3.0 | 0.00 | 0.50 | 0.02 | 49 | 1013.8 |
| 20260903195214 | 79 | 263 | 1.0 | 4.0 | 0.00 | 0.50 | 0.02 | 49 | 1013.8 |
| 20260903194503 | 79 | 255 | 3.0 | 7.0 | 0.00 | 0.50 | 0.02 | 49 | 1013.9 |
| 20260903194003 | 79 | 257 | 3.0 | 8.0 | 0.00 | 0.50 | 0.02 | 48 | 1014.1 |
| 20260903193503 | 79 | 277 | 2.0 | 8.0 | 0.00 | 0.50 | 0.02 | 49 | 1014.0 |
| 20260903193003 | 79 | 294 | 2.0 | 7.0 | 0.00 | 0.50 | 0.02 | 49 | 1014.0 |
| 20260903192503 | 79 | 271 | 2.0 | 7.0 | 0.00 | 0.50 | 0.02 | 48 | 1014.2 |
| 20260903192003 | 79 | 264 | 2.0 | 6.0 | 0.00 | 0.50 | 0.02 | 48 | 1014.1 |
| 20260903191503 | 80 | 269 | 3.0 | 7.0 | 0.00 | 0.50 | 0.02 | 48 | 1014.2 |
| 20260903191003 | 80 | 250 | 3.0 | 7.0 | 0.00 | 0.50 | 0.02 | 48 | 1014.1 |
| 20260903190503 | 80 | 246 | 3.0 | 8.0 | 0.00 | 0.50 | 0.02 | 48 | 1014.0 |
| 20260903190214 | 80 | 233 | 2.0 | 8.0 | 0.00 | 0.50 | 0.02 | 50 | 1014.0 |
| 20260903185713 | 79 | 217 | 1.0 | 5.0 | 0.00 | 0.50 | 0.02 | 50 | 1014.0 |
| 20260903185003 | 79 | 224 | 1.0 | 4.0 | 0.00 | 0.50 | 0.02 | 49 | 1014.1 |
| 20260903184503 | 79 | 195 | 2.0 | 7.0 | 0.00 | 0.50 | 0.02 | 49 | 1014.1 |
| 20260903184003 | 79 | 200 | 2.0 | 7.0 | 0.00 | 0.50 | 0.02 | 49 | 1014.1 |
| 20260903183503 | 78 | 217 | 2.0 | 8.0 | 0.00 | 0.50 | 0.02 | 49 | 1014.3 |
| 20260903183213 | 78 | 207 | 3.0 | 8.0 | 0.00 | 0.50 | 0.02 | 50 | 1014.3 |
| 20260903182503 | 78 | 199 | 4.0 | 9.0 | 0.00 | 0.50 | 0.02 | 50 | 1014.3 |
| 20260903182214 | 78 | 212 | 4.0 | 9.0 | 0.00 | 0.50 | 0.02 | 50 | 1014.3 |
| 20260903181713 | 78 | 219 | 3.0 | 7.0 | 0.00 | 0.50 | 0.02 | 50 | 1014.4 |
| 20260903181003 | 78 | 225 | 2.0 | 9.0 | 0.00 | 0.50 | 0.02 | 51 | 1014.4 |
| 20260903180503 | 78 | 242 | 2.0 | 9.0 | 0.00 | 0.50 | 0.02 | 50 | 1014.4 |
| 20260903180003 | 78 | 202 | 2.0 | 6.0 | 0.00 | 0.50 | 0.02 | 51 | 1014.3 |
| 20260903175503 | 78 | 218 | 2.0 | 7.0 | 0.00 | 0.50 | 0.02 | 50 | 1014.4 |
| 20260903175003 | 78 | 258 | 2.0 | 9.0 | 0.00 | 0.50 | 0.02 | 51 | 1014.5 |
| 20260903174503 | 78 | 237 | 3.0 | 9.0 | 0.00 | 0.50 | 0.02 | 49 | 1014.5 |
| 20260903174213 | 78 | 201 | 2.0 | 7.0 | 0.00 | 0.50 | 0.02 | 50 | 1014.5 |
| 20260903173503 | 78 | 196 | 4.0 | 8.0 | 0.00 | 0.50 | 0.02 | 51 | 1014.4 |
| 20260903173003 | 78 | 184 | 5.0 | 10.0 | 0.00 | 0.50 | 0.02 | 50 | 1014.5 |
| 20260903172503 | 78 | 188 | 5.0 | 10.0 | 0.00 | 0.50 | 0.02 | 49 | 1014.5 |
| 20260903172003 | 78 | 197 | 4.0 | 9.0 | 0.00 | 0.50 | 0.02 | 49 | 1014.4 |
| 20260903171503 | 78 | 202 | 4.0 | 11.0 | 0.00 | 0.50 | 0.02 | 50 | 1014.6 |
| 20260903171003 | 77 | 203 | 4.0 | 11.0 | 0.00 | 0.50 | 0.02 | 52 | 1014.5 |
| 20260903170503 | 77 | 233 | 3.0 | 8.0 | 0.00 | 0.50 | 0.02 | 52 | 1014.6 |
| 20260903170003 | 77 | 230 | 2.0 | 8.0 | 0.00 | 0.50 | 0.02 | 50 | 1014.6 |
| 20260903165503 | 77 | 246 | 2.0 | 9.0 | 0.00 | 0.50 | 0.02 | 53 | 1014.5 |
| 20260903165213 | 77 | 256 | 3.0 | 9.0 | 0.00 | 0.50 | 0.02 | 54 | 1014.6 |
| 20260903164503 | 77 | 170 | 3.0 | 7.0 | 0.00 | 0.50 | 0.02 | 53 | 1014.6 |
| 20260903164003 | 76 | 185 | 4.0 | 9.0 | 0.00 | 0.50 | 0.02 | 54 | 1014.6 |
| 20260903163503 | 76 | 246 | 3.0 | 9.0 | 0.00 | 0.50 | 0.02 | 52 | 1014.6 |
| 20260903163003 | 76 | 265 | 2.0 | 7.0 | 0.00 | 0.50 | 0.02 | 51 | 1014.8 |
| 20260903162714 | 76 | 261 | 2.0 | 7.0 | 0.00 | 0.50 | 0.02 | 52 | 1014.8 |
| 20260903162003 | 76 | 172 | 3.0 | 9.0 | 0.00 | 0.50 | 0.02 | 53 | 1014.8 |
| 20260903161503 | 76 | 179 | 4.0 | 11.0 | 0.00 | 0.50 | 0.02 | 53 | 1014.8 |
| 20260903161003 | 76 | 193 | 4.0 | 11.0 | 0.00 | 0.50 | 0.02 | 54 | 1014.8 |
| 20260903160503 | 75 | 245 | 4.0 | 10.0 | 0.00 | 0.50 | 0.02 | 56 | 1014.9 |
| 20260903160003 | 75 | 266 | 3.0 | 10.0 | 0.00 | 0.50 | 0.02 | 55 | 1015.0 |
| 20260903155503 | 75 | 235 | 2.0 | 8.0 | 0.00 | 0.50 | 0.02 | 57 | 1015.1 |
| 20260903155003 | 74 | 206 | 3.0 | 9.0 | 0.00 | 0.50 | 0.02 | 58 | 1015.1 |
| 20260903154714 | 73 | 192 | 4.0 | 10.0 | 0.00 | 0.50 | 0.02 | 58 | 1015.2 |
| 20260903154213 | 73 | 192 | 4.0 | 10.0 | 0.00 | 0.50 | 0.02 | 57 | 1015.2 |
| 20260903153714 | 73 | 199 | 3.0 | 9.0 | 0.00 | 0.50 | 0.02 | 57 | 1015.2 |
| 20260903153003 | 74 | 193 | 3.0 | 7.0 | 0.00 | 0.50 | 0.02 | 57 | 1015.1 |
| 20260903152503 | 74 | 201 | 3.0 | 7.0 | 0.00 | 0.50 | 0.02 | 57 | 1015.1 |
| 20260903152003 | 74 | 259 | 4.0 | 13.0 | 0.00 | 0.50 | 0.02 | 57 | 1015.1 |
| 20260903151503 | 74 | 263 | 4.0 | 13.0 | 0.00 | 0.50 | 0.02 | 56 | 1015.1 |
| 20260903151003 | 74 | 263 | 2.0 | 7.0 | 0.00 | 0.50 | 0.02 | 56 | 1015.1 |
| 20260903150713 | 74 | 241 | 2.0 | 7.0 | 0.00 | 0.50 | 0.02 | 57 | 1015.1 |
| 20260903150003 | 74 | 68 | 2.0 | 8.0 | 0.00 | 0.50 | 0.02 | 57 | 1015.2 |
| 20260903145503 | 74 | 50 | 2.0 | 6.0 | 0.00 | 0.50 | 0.02 | 58 | 1015.1 |
| 20260903145003 | 74 | 153 | 2.0 | 5.0 | 0.00 | 0.50 | 0.02 | 57 | 1015.2 |
| 20260903144503 | 74 | 146 | 1.0 | 4.0 | 0.00 | 0.50 | 0.02 | 58 | 1015.2 |
| 20260903144003 | 73 | 269 | 3.0 | 11.0 | 0.00 | 0.50 | 0.02 | 57 | 1015.1 |
| 20260903143503 | 73 | 262 | 3.0 | 11.0 | 0.00 | 0.50 | 0.02 | 57 | 1015.1 |
| 20260903143004 | 73 | 240 | 2.0 | 9.0 | 0.00 | 0.50 | 0.02 | 57 | 1015.1 |
| 20260903142503 | 73 | 228 | 2.0 | 9.0 | 0.00 | 0.50 | 0.02 | 57 | 1015.2 |
| 20260903142003 | 73 | 211 | 2.0 | 9.0 | 0.00 | 0.50 | 0.02 | 57 | 1015.1 |
| 20260903141503 | 73 | 240 | 2.0 | 11.0 | 0.00 | 0.50 | 0.02 | 58 | 1015.1 |
| 20260903141214 | 73 | 253 | 2.0 | 11.0 | 0.00 | 0.50 | 0.02 | 58 | 1015.0 |
| 20260903140503 | 72 | 253 | 2.0 | 9.0 | 0.00 | 0.50 | 0.02 | 58 | 1015.1 |
| 20260903140003 | 72 | 288 | 2.0 | 10.0 | 0.00 | 0.51 | 0.02 | 58 | 1015.1 |
| 20260903135503 | 72 | 274 | 4.0 | 10.0 | 0.00 | 0.52 | 0.02 | 58 | 1015.2 |
| 20260903135003 | 72 | 264 | 3.0 | 10.0 | 0.00 | 0.53 | 0.02 | 57 | 1015.0 |
| 20260903134503 | 72 | 226 | 2.0 | 8.0 | 0.00 | 0.53 | 0.02 | 58 | 1015.1 |
| 20260903134214 | 72 | 231 | 3.0 | 8.0 | 0.00 | 0.53 | 0.02 | 58 | 1015.0 |
| 20260903133503 | 72 | 202 | 2.0 | 7.0 | 0.00 | 0.53 | 0.02 | 58 | 1015.1 |
| 20260903133003 | 72 | 190 | 2.0 | 7.0 | 0.00 | 0.59 | 0.02 | 59 | 1015.1 |
| 20260903132503 | 72 | 201 | 3.0 | 9.0 | 0.00 | 0.79 | 0.02 | 58 | 1015.0 |
| 20260903132003 | 72 | 183 | 2.0 | 9.0 | 0.00 | 1.03 | 0.02 | 58 | 1015.0 |
| 20260903131503 | 72 | 167 | 2.0 | 6.0 | 0.00 | 1.11 | 0.02 | 58 | 1015.1 |
| 20260903131003 | 72 | 174 | 3.0 | 7.0 | 0.00 | 1.12 | 0.02 | 59 | 1015.2 |
| 20260903130712 | 72 | 184 | 3.0 | 8.0 | 0.00 | 1.12 | 0.02 | 59 | 1015.1 |
| 20260903130003 | 72 | 208 | 3.0 | 8.0 | 0.00 | 1.12 | 0.02 | 59 | 1015.1 |
| 20260903125712 | 71 | 213 | 2.0 | 8.0 | 0.00 | 1.12 | 0.02 | 59 | 1015.2 |
| 20260903125003 | 71 | 203 | 2.0 | 9.0 | 0.00 | 1.12 | 0.02 | 59 | 1015.3 |
| 20260903124713 | 71 | 203 | 3.0 | 9.0 | 0.00 | 1.12 | 0.02 | 59 | 1015.3 |
| 20260903124003 | 71 | 221 | 3.0 | 9.0 | 0.00 | 1.12 | 0.02 | 59 | 1015.5 |
| 20260903123503 | 71 | 212 | 4.0 | 15.0 | 0.00 | 1.12 | 0.02 | 59 | 1015.4 |
| 20260903123003 | 71 | 204 | 4.0 | 15.0 | 0.00 | 1.12 | 0.02 | 59 | 1015.3 |
| 20260903122503 | 70 | 212 | 2.0 | 8.0 | 0.00 | 1.12 | 0.02 | 59 | 1015.3 |
| 20260903122003 | 70 | 213 | 2.0 | 6.0 | 0.00 | 1.12 | 0.02 | 59 | 1015.1 |
| 20260903121503 | 70 | 207 | 2.0 | 9.0 | 0.00 | 1.12 | 0.02 | 59 | 1015.1 |
| 20260903121003 | 70 | 211 | 3.0 | 9.0 | 0.00 | 1.12 | 0.02 | 59 | 1015.0 |
| 20260903120503 | 70 | 218 | 3.0 | 9.0 | 0.00 | 1.12 | 0.02 | 59 | 1014.9 |
| 20260903120003 | 70 | 200 | 2.0 | 7.0 | 0.00 | 1.12 | 0.02 | 60 | 1015.0 |
| 20260903115503 | 70 | 139 | 1.0 | 5.0 | 0.00 | 1.12 | 0.02 | 59 | 1014.9 |
| 20260903115003 | 70 | 179 | 2.0 | 8.0 | 0.00 | 1.12 | 0.02 | 59 | 1015.0 |
| 20260903114503 | 70 | 286 | 2.0 | 8.0 | 0.00 | 1.12 | 0.02 | 59 | 1015.0 |
| 20260903114003 | 70 | 273 | 1.0 | 8.0 | 0.00 | 1.12 | 0.02 | 59 | 1014.6 |
| 20260903113503 | 70 | 255 | 1.0 | 8.0 | 0.00 | 1.12 | 0.02 | 59 | 1014.5 |
| 20260903113003 | 70 | 253 | 2.0 | 15.0 | 0.00 | 1.12 | 0.02 | 59 | 1014.6 |
| 20260903112503 | 69 | 250 | 3.0 | 15.0 | 0.00 | 1.12 | 0.02 | 60 | 1014.5 |
| 20260903112003 | 69 | 204 | 2.0 | 12.0 | 0.00 | 1.12 | 0.02 | 61 | 1014.3 |
| 20260903111503 | 68 | 165 | 2.0 | 12.0 | 0.00 | 1.12 | 0.02 | 61 | 1014.4 |
| 20260903111003 | 68 | 94 | 1.0 | 4.0 | 0.00 | 1.12 | 0.02 | 61 | 1014.4 |
| 20260903110503 | 68 | 269 | 1.0 | 3.0 | 0.00 | 1.12 | 0.02 | 60 | 1014.3 |
| 20260903110213 | 68 | 309 | 1.0 | 4.0 | 0.00 | 1.12 | 0.02 | 60 | 1014.3 |
| 20260903105503 | 68 | 324 | 1.0 | 5.0 | 0.00 | 1.12 | 0.02 | 61 | 1013.9 |
| 20260903105213 | 68 | 253 | 1.0 | 7.0 | 0.00 | 1.12 | 0.02 | 61 | 1013.9 |
| 20260903104714 | 68 | 243 | 1.0 | 7.0 | 0.00 | 1.12 | 0.02 | 61 | 1013.9 |
| 20260903104004 | 68 | 212 | 1.0 | 5.0 | 0.00 | 1.12 | 0.02 | 61 | 1014.0 |
| 20260903103503 | 67 | 213 | 1.0 | 7.0 | 0.00 | 1.12 | 0.02 | 61 | 1013.9 |
| 20260903103003 | 67 | 221 | 1.0 | 7.0 | 0.00 | 1.12 | 0.02 | 61 | 1013.9 |
| 20260903102503 | 67 | 242 | 1.0 | 7.0 | 0.00 | 1.12 | 0.02 | 61 | 1013.8 |
| 20260903102003 | 68 | 221 | 0.0 | 3.0 | 0.00 | 1.12 | 0.02 | 61 | 1013.8 |
| 20260903101503 | 68 | 192 | 0.0 | 3.0 | 0.00 | 1.12 | 0.02 | 60 | 1013.9 |
| 20260903101003 | 68 | 340 | 0.0 | 3.0 | 0.00 | 1.12 | 0.02 | 60 | 1013.7 |
| 20260903100503 | 68 | 340 | 0.0 | 3.0 | 0.00 | 1.12 | 0.02 | 59 | 1013.7 |
| 20260903100004 | 68 | 340 | 0.0 | 2.0 | 0.00 | 1.12 | 0.02 | 59 | 1013.7 |
| 20260903095713 | 69 | 43 | 0.0 | 3.0 | 0.00 | 1.12 | 0.02 | 59 | 1013.7 |
| 20260903095003 | 69 | 214 | 1.0 | 6.0 | 0.00 | 1.12 | 0.02 | 59 | 1013.7 |
| 20260903094503 | 69 | 229 | 1.0 | 7.0 | 0.00 | 1.12 | 0.02 | 59 | 1013.6 |
| 20260903094003 | 69 | 226 | 1.0 | 7.0 | 0.00 | 1.12 | 0.02 | 59 | 1013.7 |
| 20260903093503 | 69 | 231 | 2.0 | 8.0 | 0.00 | 1.12 | 0.02 | 59 | 1013.7 |
| 20260903093003 | 69 | 230 | 3.0 | 8.0 | 0.00 | 1.12 | 0.02 | 59 | 1013.8 |
| 20260903092503 | 69 | 211 | 3.0 | 12.0 | 0.00 | 1.12 | 0.02 | 59 | 1013.8 |
| 20260903092003 | 69 | 216 | 3.0 | 12.0 | 0.00 | 1.12 | 0.02 | 59 | 1013.7 |
| 20260903091503 | 69 | 221 | 3.0 | 12.0 | 0.00 | 1.12 | 0.02 | 59 | 1013.7 |
| 20260903091003 | 69 | 228 | 3.0 | 15.0 | 0.00 | 1.12 | 0.02 | 59 | 1013.5 |
| 20260903090503 | 69 | 220 | 4.0 | 15.0 | 0.00 | 1.12 | 0.02 | 59 | 1013.6 |
| 20260903090003 | 69 | 210 | 5.0 | 11.0 | 0.00 | 1.12 | 0.02 | 59 | 1013.4 |
| 20260903085503 | 69 | 215 | 5.0 | 12.0 | 0.00 | 1.12 | 0.02 | 59 | 1013.4 |
| 20260903085214 | 69 | 221 | 5.0 | 14.0 | 0.00 | 1.12 | 0.02 | 59 | 1013.4 |
| 20260903084503 | 69 | 209 | 6.0 | 14.0 | 0.00 | 1.12 | 0.02 | 59 | 1013.5 |
| 20260903084003 | 68 | 200 | 6.0 | 12.0 | 0.00 | 1.12 | 0.02 | 60 | 1013.6 |
| 20260903083713 | 68 | 202 | 6.0 | 15.0 | 0.00 | 1.12 | 0.02 | 60 | 1013.5 |
| 20260903083003 | 68 | 204 | 8.0 | 16.0 | 0.00 | 1.12 | 0.02 | 60 | 1013.3 |
| 20260903082503 | 68 | 201 | 8.0 | 16.0 | 0.00 | 1.12 | 0.02 | 60 | 1013.2 |
| 20260903082214 | 68 | 198 | 7.0 | 16.0 | 0.00 | 1.12 | 0.02 | 60 | 1013.2 |
| 20260903081503 | 68 | 198 | 7.0 | 16.0 | 0.00 | 1.12 | 0.02 | 59 | 1013.1 |
| 20260903081214 | 68 | 199 | 7.0 | 26.0 | 0.00 | 1.12 | 0.02 | 59 | 1013.1 |
| 20260903080503 | 68 | 198 | 7.0 | 26.0 | 0.00 | 1.12 | 0.02 | 60 | 1013.1 |
| 20260903080003 | 68 | 202 | 6.0 | 13.0 | 0.00 | 1.12 | 0.02 | 60 | 1013.2 |
| 20260903075503 | 68 | 200 | 6.0 | 14.0 | 0.00 | 1.12 | 0.02 | 60 | 1013.1 |
| 20260903075003 | 68 | 201 | 6.0 | 14.0 | 0.00 | 1.12 | 0.02 | 60 | 1013.2 |
| 20260903074503 | 68 | 206 | 5.0 | 15.0 | 0.00 | 1.12 | 0.02 | 60 | 1013.3 |
| 20260903074003 | 68 | 207 | 5.0 | 15.0 | 0.00 | 1.12 | 0.02 | 60 | 1013.2 |
| 20260903073503 | 68 | 208 | 6.0 | 15.0 | 0.00 | 1.12 | 0.02 | 60 | 1013.2 |
| 20260903073003 | 68 | 210 | 5.0 | 13.0 | 0.00 | 1.12 | 0.02 | 60 | 1013.3 |
| 20260903072503 | 68 | 207 | 5.0 | 13.0 | 0.00 | 1.12 | 0.02 | 60 | 1013.4 |
| 20260903072213 | 68 | 204 | 6.0 | 13.0 | 0.00 | 1.12 | 0.02 | 60 | 1013.4 |
| 20260903071712 | 68 | 204 | 6.0 | 13.0 | 0.00 | 1.12 | 0.02 | 60 | 1013.4 |
| 20260903071003 | 68 | 208 | 6.0 | 16.0 | 0.00 | 1.12 | 0.02 | 61 | 1013.6 |
| 20260903070712 | 68 | 208 | 7.0 | 16.0 | 0.00 | 1.12 | 0.02 | 61 | 1013.6 |
| 20260903070003 | 68 | 199 | 6.0 | 15.0 | 0.00 | 1.12 | 0.02 | 62 | 1013.5 |
| 20260903065503 | 68 | 199 | 6.0 | 14.0 | 0.01 | 1.12 | 0.02 | 62 | 1013.7 |
| 20260903065003 | 68 | 199 | 5.0 | 14.0 | 0.02 | 1.12 | 0.02 | 63 | 1013.7 |
| 20260903064503 | 68 | 198 | 5.0 | 11.0 | 0.02 | 1.12 | 0.02 | 63 | 1013.8 |
| 20260903064003 | 68 | 189 | 6.0 | 11.0 | 0.02 | 1.12 | 0.02 | 63 | 1013.8 |
| 20260903063714 | 67 | 183 | 5.0 | 11.0 | 0.02 | 1.12 | 0.02 | 63 | 1013.8 |
| 20260903063213 | 67 | 179 | 5.0 | 10.0 | 0.02 | 1.12 | 0.02 | 63 | 1013.9 |
| 20260903062503 | 67 | 193 | 6.0 | 11.0 | 0.02 | 1.12 | 0.02 | 62 | 1013.9 |
| 20260903062003 | 67 | 195 | 6.0 | 11.0 | 0.02 | 1.12 | 0.02 | 62 | 1014.1 |
| 20260903061503 | 67 | 190 | 4.0 | 11.0 | 0.02 | 1.12 | 0.02 | 63 | 1013.8 |
| 20260903061003 | 67 | 197 | 2.0 | 6.0 | 0.02 | 1.12 | 0.02 | 63 | 1013.8 |
| 20260903060503 | 67 | 209 | 2.0 | 6.0 | 0.02 | 1.12 | 0.02 | 63 | 1014.0 |
| 20260903060003 | 67 | 218 | 3.0 | 10.0 | 0.02 | 1.12 | 0.02 | 63 | 1014.0 |
| 20260903055503 | 67 | 219 | 4.0 | 10.0 | 0.01 | 1.11 | 0.01 | 63 | 1014.3 |
| 20260903055003 | 67 | 201 | 5.0 | 9.0 | 0.00 | 1.10 | 0.00 | 63 | 1013.9 |
| 20260903054503 | 67 | 197 | 5.0 | 10.0 | 0.00 | 1.10 | 0.00 | 63 | 1014.0 |
| 20260903054003 | 67 | 197 | 5.0 | 10.0 | 0.00 | 1.10 | 0.00 | 63 | 1014.2 |
| 20260903053503 | 67 | 201 | 5.0 | 10.0 | 0.00 | 1.10 | 0.00 | 63 | 1014.0 |
| 20260903053003 | 67 | 202 | 6.0 | 11.0 | 0.00 | 1.10 | 0.00 | 63 | 1014.0 |
| 20260903052503 | 67 | 206 | 4.0 | 11.0 | 0.00 | 1.10 | 0.00 | 64 | 1013.9 |
| 20260903052003 | 66 | 218 | 4.0 | 10.0 | 0.00 | 1.10 | 0.00 | 64 | 1013.9 |
| 20260903051503 | 66 | 212 | 5.0 | 15.0 | 0.00 | 1.10 | 0.00 | 64 | 1014.0 |
| 20260903051003 | 66 | 206 | 6.0 | 15.0 | 0.00 | 1.10 | 0.00 | 64 | 1014.0 |
| 20260903050714 | 66 | 204 | 6.0 | 11.0 | 0.00 | 1.10 | 0.00 | 64 | 1013.9 |
| 20260903050212 | 66 | 201 | 6.0 | 12.0 | 0.00 | 1.10 | 0.00 | 64 | 1013.9 |
| 20260903045503 | 66 | 202 | 5.0 | 12.0 | 0.00 | 1.10 | 0.00 | 64 | 1013.9 |
| 20260903045003 | 66 | 203 | 5.0 | 13.0 | 0.00 | 1.10 | 0.00 | 64 | 1014.0 |
| 20260903044503 | 66 | 201 | 6.0 | 13.0 | 0.00 | 1.10 | 0.00 | 64 | 1013.9 |
| 20260903044003 | 66 | 202 | 5.0 | 12.0 | 0.00 | 1.10 | 0.00 | 64 | 1013.8 |
| 20260903043713 | 66 | 206 | 5.0 | 11.0 | 0.00 | 1.10 | 0.00 | 64 | 1013.8 |
| 20260903043003 | 66 | 209 | 5.0 | 11.0 | 0.00 | 1.10 | 0.00 | 64 | 1013.8 |
| 20260903042503 | 66 | 206 | 6.0 | 11.0 | 0.00 | 1.10 | 0.00 | 64 | 1013.9 |
| 20260903042003 | 66 | 205 | 6.0 | 11.0 | 0.00 | 1.10 | 0.00 | 64 | 1013.9 |
| 20260903041503 | 66 | 206 | 5.0 | 11.0 | 0.00 | 1.10 | 0.00 | 64 | 1013.9 |
| 20260903041003 | 66 | 208 | 5.0 | 11.0 | 0.00 | 1.10 | 0.00 | 64 | 1013.9 |
| 20260903040503 | 66 | 211 | 5.0 | 11.0 | 0.00 | 1.10 | 0.00 | 64 | 1013.8 |
| 20260903040212 | 66 | 209 | 4.0 | 9.0 | 0.01 | 1.10 | 0.00 | 64 | 1013.8 |
| 20260903035713 | 66 | 205 | 5.0 | 11.0 | 0.02 | 1.10 | 1.10 | 64 | 1014.2 |
| 20260903035003 | 66 | 199 | 5.0 | 11.0 | 0.04 | 1.10 | 1.10 | 64 | 1014.3 |
| 20260903034503 | 66 | 199 | 5.0 | 10.0 | 0.04 | 1.10 | 1.10 | 64 | 1014.4 |
| 20260903034003 | 66 | 200 | 5.0 | 9.0 | 0.05 | 1.10 | 1.10 | 64 | 1014.4 |
| 20260903033503 | 66 | 204 | 4.0 | 9.0 | 0.06 | 1.10 | 1.10 | 64 | 1014.3 |
| 20260903033003 | 66 | 209 | 4.0 | 9.0 | 0.08 | 1.10 | 1.10 | 64 | 1014.4 |
| 20260903032503 | 66 | 216 | 3.0 | 7.0 | 0.13 | 1.10 | 1.10 | 64 | 1014.5 |
| 20260903032214 | 66 | 215 | 3.0 | 7.0 | 0.13 | 1.10 | 1.10 | 64 | 1014.5 |
| 20260903031503 | 66 | 197 | 4.0 | 8.0 | 0.15 | 1.10 | 1.10 | 64 | 1014.4 |
| 20260903031214 | 66 | 192 | 5.0 | 12.0 | 0.15 | 1.10 | 1.10 | 64 | 1014.4 |
| 20260903030713 | 66 | 193 | 5.0 | 12.0 | 0.15 | 1.10 | 1.10 | 64 | 1014.4 |
| 20260903030003 | 66 | 209 | 4.0 | 9.0 | 0.14 | 1.09 | 1.09 | 64 | 1014.8 |
| 20260903025503 | 66 | 215 | 4.0 | 9.0 | 0.13 | 1.08 | 1.08 | 64 | 1015.2 |
| 20260903025003 | 66 | 205 | 4.0 | 8.0 | 0.11 | 1.06 | 1.06 | 64 | 1015.2 |
| 20260903024503 | 66 | 203 | 4.0 | 8.0 | 0.11 | 1.06 | 1.06 | 64 | 1015.4 |
| 20260903024003 | 66 | 200 | 5.0 | 10.0 | 0.10 | 1.05 | 1.05 | 64 | 1016.0 |
| 20260903023503 | 66 | 218 | 5.0 | 11.0 | 0.09 | 1.04 | 1.04 | 63 | 1016.1 |
| 20260903023003 | 66 | 235 | 4.0 | 11.0 | 0.07 | 1.02 | 1.02 | 64 | 1016.6 |
| 20260903022503 | 66 | 218 | 4.0 | 11.0 | 0.02 | 0.97 | 0.97 | 63 | 1014.9 |
| 20260903022003 | 66 | 210 | 4.0 | 11.0 | 0.02 | 0.97 | 0.97 | 63 | 1014.8 |
| 20260903021503 | 67 | 203 | 3.0 | 8.0 | 0.01 | 0.95 | 0.95 | 63 | 1015.0 |
| 20260903021213 | 67 | 199 | 3.0 | 8.0 | 0.01 | 0.95 | 0.95 | 63 | 1014.9 |
| 20260903020503 | 67 | 200 | 3.0 | 6.0 | 0.01 | 0.95 | 0.95 | 63 | 1015.3 |
| 20260903020003 | 67 | 203 | 3.0 | 7.0 | 0.01 | 0.95 | 0.95 | 63 | 1015.7 |
| 20260903015503 | 67 | 185 | 3.0 | 7.0 | 0.01 | 0.95 | 0.95 | 63 | 1015.8 |
| 20260903015003 | 67 | 183 | 3.0 | 7.0 | 0.02 | 0.95 | 0.95 | 63 | 1015.7 |
| 20260903014712 | 67 | 193 | 3.0 | 7.0 | 0.02 | 0.95 | 0.95 | 63 | 1015.7 |
| 20260903014213 | 67 | 212 | 2.0 | 7.0 | 0.03 | 0.95 | 0.95 | 63 | 1016.0 |
| 20260903013714 | 67 | 218 | 1.0 | 5.0 | 0.04 | 0.95 | 0.95 | 62 | 1016.3 |
| 20260903013003 | 67 | 245 | 1.0 | 4.0 | 0.08 | 0.95 | 0.95 | 62 | 1015.6 |
| 20260903012503 | 67 | 264 | 1.0 | 4.0 | 0.13 | 0.95 | 0.95 | 62 | 1015.2 |
| 20260903012003 | 67 | 263 | 2.0 | 7.0 | 0.27 | 0.95 | 0.95 | 62 | 1015.2 |
| 20260903011503 | 67 | 250 | 3.0 | 8.0 | 0.32 | 0.94 | 0.94 | 62 | 1015.8 |
| 20260903011003 | 67 | 212 | 4.0 | 12.0 | 0.32 | 0.94 | 0.94 | 62 | 1016.1 |
| 20260903010503 | 67 | 203 | 4.0 | 12.0 | 0.32 | 0.94 | 0.94 | 62 | 1016.2 |
| 20260903010003 | 67 | 201 | 2.0 | 9.0 | 0.32 | 0.94 | 0.94 | 62 | 1016.5 |
| 20260903005503 | 67 | 186 | 2.0 | 6.0 | 0.32 | 0.94 | 0.94 | 61 | 1016.1 |
| 20260903005003 | 67 | 188 | 4.0 | 11.0 | 0.31 | 0.93 | 0.93 | 61 | 1016.1 |
| 20260903004503 | 68 | 180 | 4.0 | 11.0 | 0.31 | 0.93 | 0.93 | 61 | 1016.3 |
| 20260903004213 | 68 | 180 | 4.0 | 11.0 | 0.30 | 0.92 | 0.92 | 61 | 1016.4 |
| 20260903003714 | 68 | 192 | 3.0 | 9.0 | 0.29 | 0.91 | 0.91 | 61 | 1016.4 |
| 20260903003003 | 69 | 223 | 5.0 | 18.0 | 0.25 | 0.87 | 0.87 | 60 | 1016.8 |
| 20260903002503 | 70 | 272 | 8.0 | 23.0 | 0.20 | 0.82 | 0.82 | 57 | 1016.9 |
| 20260903002213 | 72 | 284 | 7.0 | 23.0 | 0.13 | 0.75 | 0.75 | 55 | 1017.3 |
| 20260903001503 | 74 | 235 | 3.0 | 8.0 | 0.00 | 0.62 | 0.62 | 53 | 1015.1 |
| 20260903001003 | 75 | 196 | 4.0 | 9.0 | 0.00 | 0.62 | 0.62 | 53 | 1014.0 |
| 20260903000503 | 75 | 190 | 4.0 | 9.0 | 0.00 | 0.62 | 0.62 | 54 | 1014.2 |
| 20260903000003 | 75 | 181 | 3.0 | 8.0 | 0.00 | 0.62 | 0.62 | 55 | 1013.7 |
| 20260902235503 | 75 | 157 | 1.0 | 8.0 | 0.00 | 0.62 | 0.62 | 57 | 1013.2 |
| 20260902235003 | 75 | 126 | 2.0 | 8.0 | 0.00 | 0.62 | 0.62 | 59 | 1013.6 |
| 20260902234503 | 75 | 122 | 3.0 | 8.0 | 0.00 | 0.62 | 0.62 | 59 | 1013.4 |
| 20260902234003 | 76 | 131 | 4.0 | 8.0 | 0.00 | 0.62 | 0.62 | 59 | 1013.2 |
| 20260902233503 | 76 | 141 | 4.0 | 8.0 | 0.00 | 0.62 | 0.62 | 59 | 1013.4 |
| 20260902233003 | 75 | 150 | 3.0 | 8.0 | 0.00 | 0.62 | 0.62 | 59 | 1013.6 |
| 20260902232503 | 75 | 159 | 1.0 | 6.0 | 0.00 | 0.62 | 0.62 | 60 | 1014.1 |
| 20260902232003 | 75 | 26 | 0.0 | 3.0 | 0.00 | 0.62 | 0.62 | 60 | 1014.3 |
| 20260902231503 | 75 | 274 | 0.0 | 2.0 | 0.00 | 0.62 | 0.62 | 60 | 1014.2 |
| 20260902231003 | 75 | 274 | 1.0 | 3.0 | 0.00 | 0.62 | 0.62 | 60 | 1014.0 |
| 20260902230503 | 76 | 275 | 1.0 | 4.0 | 0.00 | 0.62 | 0.62 | 60 | 1014.1 |
| 20260902230003 | 76 | 269 | 2.0 | 6.0 | 0.00 | 0.62 | 0.62 | 60 | 1014.0 |
| 20260902225713 | 76 | 265 | 2.0 | 6.0 | 0.00 | 0.62 | 0.62 | 60 | 1014.0 |
| 20260902225003 | 76 | 258 | 2.0 | 4.0 | 0.00 | 0.62 | 0.62 | 60 | 1013.9 |
| 20260902224503 | 76 | 258 | 2.0 | 3.0 | 0.00 | 0.62 | 0.62 | 59 | 1013.8 |
| 20260902224003 | 77 | 250 | 2.0 | 4.0 | 0.00 | 0.62 | 0.62 | 59 | 1014.1 |
| 20260902223503 | 77 | 202 | 2.0 | 6.0 | 0.00 | 0.62 | 0.62 | 58 | 1014.2 |
| 20260902223003 | 78 | 192 | 2.0 | 6.0 | 0.00 | 0.62 | 0.62 | 56 | 1013.7 |
| 20260902222503 | 78 | 191 | 3.0 | 6.0 | 0.00 | 0.62 | 0.62 | 56 | 1013.7 |
| 20260902222003 | 78 | 177 | 3.0 | 6.0 | 0.00 | 0.62 | 0.62 | 56 | 1013.6 |
| 20260902221503 | 77 | 180 | 2.0 | 6.0 | 0.00 | 0.62 | 0.62 | 57 | 1013.6 |
| 20260902221003 | 78 | 190 | 0.0 | 3.0 | 0.00 | 0.62 | 0.62 | 57 | 1013.7 |
| 20260902220503 | 78 | 211 | 0.0 | 2.0 | 0.00 | 0.62 | 0.62 | 57 | 1013.7 |
| 20260902220003 | 79 | 211 | 1.0 | 2.0 | 0.00 | 0.62 | 0.62 | 56 | 1014.3 |
| 20260902215503 | 79 | 211 | 0.0 | 2.0 | 0.00 | 0.62 | 0.62 | 56 | 1014.2 |
| 20260902215214 | 80 | 211 | 0.0 | 2.0 | 0.00 | 0.62 | 0.62 | 55 | 1014.1 |
| 20260902214503 | 80 | 211 | 0.0 | 2.0 | 0.00 | 0.62 | 0.62 | 54 | 1013.6 |